When you browse on this site, cookies collect data to enhance your experience and personalize the content and advertising you see.
Visit our Privacy Policy to learn more. By continuing to use the site, you agree to this use of cookies and data.
  • In France
  • List of Countries
  • For 7 days
  • Water Temperature
  • Satellite Maps
  • Weather Map
  • Weather Widgets
  • user-avatar
    Login

    Hourly Weather Djelfa

    Today, 23 January, Wednesday

    Time Temperature Precipitation Wind Pressure Humidity
    00:00 -2°C° 0 mm 11 mps 657 mmHg 84%
    01:00 -2°C° 0.1 mm 11 mps 657 mmHg 85%
    02:00 -2°C° 0.1 mm 10 mps 656 mmHg 85%
    03:00 -2°C° 0.1 mm 10 mps 656 mmHg 86%
    04:00 -2°C° 0.1 mm 10 mps 655 mmHg 87%
    05:00 -2°C° 0.1 mm 10 mps 655 mmHg 87%
    06:00 -2°C° 0 mm 11 mps 655 mmHg 89%
    07:00 -1°C° 0 mm 11 mps 656 mmHg 86%
    08:00 -1°C° 0 mm 12 mps 656 mmHg 83%
    09:00 -1°C° 0 mm 12 mps 656 mmHg 80%
    10:00 0°C° 0.1 mm 12 mps 656 mmHg 76%
    11:00 +1°C° 0.1 mm 13 mps 655 mmHg 72%
    12:00 +3°C° 0 mm 13 mps 655 mmHg 65%
    13:00 +3°C° 0 mm 13 mps 655 mmHg 66%
    14:00 +4°C° 0 mm 13 mps 655 mmHg 66%
    15:00 +4°C° 0 mm 14 mps 654 mmHg 67%
    16:00 +3°C° 0.1 mm 14 mps 654 mmHg 72%
    17:00 +3°C° 0.1 mm 14 mps 654 mmHg 77%
    18:00 +1°C° 0.1 mm 14 mps 654 mmHg 82%
    19:00 +1°C° 0.1 mm 14 mps 654 mmHg 83%
    20:00 +1°C° 0.1 mm 15 mps 654 mmHg 84%
    21:00 +1°C° 0.1 mm 15 mps 654 mmHg 85%
    22:00 +1°C° 0 mm 15 mps 654 mmHg 85%
    23:00 +1°C° 0 mm 16 mps 653 mmHg 85%

    Tomorrow, 24 January, Thursday

    Time Temperature Precipitation Wind Pressure Humidity
    00:00 +1°C° 0 mm 16 mps 653 mmHg 85%
    01:00 +1°C° 0 mm 16 mps 653 mmHg 85%
    02:00 +1°C° 0 mm 17 mps 652 mmHg 85%
    03:00 +2°C° 0 mm 18 mps 652 mmHg 85%
    04:00 +2°C° 0.1 mm 18 mps 651 mmHg 84%
    05:00 +2°C° 0.1 mm 19 mps 651 mmHg 84%
    06:00 +2°C° 0.1 mm 19 mps 651 mmHg 84%
    07:00 +2°C° 0.1 mm 19 mps 651 mmHg 82%
    08:00 +2°C° 0.1 mm 19 mps 651 mmHg 80%
    09:00 +2°C° 0.1 mm 19 mps 651 mmHg 78%
    10:00 +2°C° 0.1 mm 20 mps 652 mmHg 72%
    11:00 +3°C° 0.1 mm 20 mps 652 mmHg 67%
    12:00 +4°C° 0.1 mm 21 mps 653 mmHg 61%
    13:00 +3°C° 0.4 mm 19 mps 653 mmHg 65%
    14:00 +2°C° 0.4 mm 18 mps 653 mmHg 68%
    15:00 +1°C° 0.4 mm 16 mps 653 mmHg 72%
    16:00 0°C° 0.5 mm 15 mps 654 mmHg 70%
    17:00 -1°C° 0.5 mm 14 mps 654 mmHg 68%
    18:00 -2°C° 0.5 mm 13 mps 655 mmHg 67%
    19:00 -2°C° 0 mm 12 mps 655 mmHg 70%
    20:00 -3°C° 0 mm 10 mps 655 mmHg 73%
    21:00 -3°C° 0 mm 9 mps 656 mmHg 77%
    22:00 -4°C° 0 mm 8 mps 656 mmHg 80%
    23:00 -4°C° 0 mm 8 mps 656 mmHg 83%

    Day after tomorrow, 25 January, Friday

    Time Temperature Precipitation Wind Pressure Humidity
    00:00 -4°C° 0 mm 8 mps 656 mmHg 87%
    01:00 -4°C° 0 mm 8 mps 656 mmHg 86%
    02:00 -4°C° 0 mm 8 mps 657 mmHg 86%
    03:00 -5°C° 0 mm 9 mps 657 mmHg 85%
    04:00 -5°C° 0 mm 8 mps 657 mmHg 85%
    05:00 -5°C° 0 mm 8 mps 657 mmHg 84%
    06:00 -5°C° 0 mm 8 mps 657 mmHg 83%
    07:00 -4°C° 0 mm 9 mps 658 mmHg 78%
    08:00 -3°C° 0 mm 10 mps 659 mmHg 72%
    09:00 -2°C° 0 mm 11 mps 659 mmHg 66%
    10:00 -1°C° 0 mm 11 mps 659 mmHg 59%
    11:00 +1°C° 0 mm 11 mps 660 mmHg 52%
    12:00 +2°C° 0 mm 12 mps 660 mmHg 45%
    13:00 +3°C° 0 mm 12 mps 660 mmHg 43%
    14:00 +3°C° 0 mm 11 mps 660 mmHg 40%
    15:00 +4°C° 0 mm 11 mps 659 mmHg 37%
    16:00 +3°C° 0 mm 10 mps 660 mmHg 43%
    17:00 +2°C° 0 mm 9 mps 660 mmHg 49%
    18:00 +1°C° 0 mm 8 mps 660 mmHg 55%
    19:00 +1°C° 0 mm 9 mps 660 mmHg 65%
    20:00 +1°C° 0 mm 10 mps 660 mmHg 74%
    21:00 -1°C° 0 mm 12 mps 661 mmHg 83%
    22:00 -1°C° 0 mm 12 mps 661 mmHg 84%
    23:00 0°C° 0 mm 12 mps 661 mmHg 85%

    26 January, Saturday

    Time Temperature Precipitation Wind Pressure Humidity
    00:00 0°C° 0 mm 12 mps 661 mmHg 87%
    01:00 0°C° 0 mm 12 mps 661 mmHg 89%
    02:00 0°C° 0 mm 12 mps 661 mmHg 92%
    03:00 0°C° 0 mm 12 mps 661 mmHg 95%
    04:00 +1°C° 0 mm 11 mps 661 mmHg 95%
    05:00 +1°C° 0 mm 11 mps 661 mmHg 95%
    06:00 +1°C° 0 mm 10 mps 662 mmHg 95%
    07:00 +1°C° 0 mm 10 mps 662 mmHg 92%
    08:00 +2°C° 0 mm 10 mps 663 mmHg 88%
    09:00 +2°C° 0 mm 10 mps 663 mmHg 84%
    10:00 +3°C° 0 mm 10 mps 663 mmHg 74%
    11:00 +5°C° 0 mm 9 mps 664 mmHg 64%
    12:00 +6°C° 0 mm 9 mps 664 mmHg 54%
    13:00 +7°C° 0 mm 9 mps 664 mmHg 52%
    14:00 +7°C° 0 mm 8 mps 663 mmHg 50%
    15:00 +7°C° 0 mm 8 mps 663 mmHg 49%
    16:00 +7°C° 0 mm 6 mps 663 mmHg 54%
    17:00 +6°C° 0 mm 5 mps 663 mmHg 58%
    18:00 +5°C° 0 mm 4 mps 663 mmHg 63%
    19:00 +5°C° 0 mm 3 mps 663 mmHg 66%
    20:00 +4°C° 0 mm 3 mps 664 mmHg 68%
    21:00 +4°C° 0 mm 3 mps 664 mmHg 70%
    22:00 +4°C° 0 mm 3 mps 664 mmHg 73%
    23:00 +3°C° 0 mm 3 mps 663 mmHg 76%

    27 January, Sunday

    Time Temperature Precipitation Wind Pressure Humidity
    00:00 +3°C° 0 mm 3 mps 663 mmHg 78%
    01:00 +3°C° 0 mm 3 mps 663 mmHg 77%
    02:00 +3°C° 0 mm 3 mps 662 mmHg 75%
    03:00 +3°C° 0 mm 4 mps 662 mmHg 73%
    04:00 +3°C° 0 mm 4 mps 662 mmHg 73%
    05:00 +3°C° 0 mm 4 mps 662 mmHg 73%
    06:00 +1°C° 0 mm 4 mps 662 mmHg 73%
    07:00 +3°C° 0 mm 5 mps 662 mmHg 67%
    08:00 +5°C° 0 mm 5 mps 662 mmHg 61%
    09:00 +5°C° 0 mm 6 mps 663 mmHg 54%
    10:00 +8°C° 0 mm 7 mps 662 mmHg 49%
    11:00 +9°C° 0 mm 7 mps 662 mmHg 44%
    12:00 +10°C° 0 mm 8 mps 662 mmHg 38%
    13:00 +11°C° 0 mm 8 mps 661 mmHg 38%
    14:00 +11°C° 0 mm 8 mps 661 mmHg 38%
    15:00 +11°C° 0 mm 9 mps 660 mmHg 38%
    16:00 +10°C° 0 mm 8 mps 660 mmHg 46%
    17:00 +8°C° 0 mm 7 mps 660 mmHg 54%
    18:00 +7°C° 0 mm 6 mps 660 mmHg 62%
    19:00 +5°C° 0 mm 7 mps 660 mmHg 69%
    20:00 +4°C° 0 mm 7 mps 660 mmHg 76%
    21:00 +2°C° 0 mm 8 mps 660 mmHg 82%
    22:00 +2°C° 0 mm 8 mps 660 mmHg 85%
    23:00 +1°C° 0 mm 8 mps 659 mmHg 88%

    28 January, Monday

    Time Temperature Precipitation Wind Pressure Humidity
    00:00 +1°C° 0 mm 8 mps 659 mmHg 90%
    01:00 +1°C° 0 mm 8 mps 659 mmHg 90%
    02:00 0°C° 0 mm 8 mps 658 mmHg 89%
    03:00 0°C° 0 mm 8 mps 658 mmHg 88%
    04:00 0°C° 0 mm 8 mps 658 mmHg 88%
    05:00 0°C° 0 mm 8 mps 658 mmHg 88%
    06:00 -1°C° 0 mm 8 mps 658 mmHg 88%
    07:00 0°C° 0 mm 8 mps 658 mmHg 85%
    08:00 0°C° 0 mm 8 mps 659 mmHg 82%
    09:00 +1°C° 0 mm 9 mps 659 mmHg 79%
    10:00 +2°C° 0 mm 10 mps 659 mmHg 72%
    11:00 +2°C° 0 mm 10 mps 659 mmHg 64%
    12:00 +3°C° 0 mm 11 mps 659 mmHg 56%
    13:00 +3°C° 0 mm 11 mps 659 mmHg 57%
    14:00 +3°C° 0 mm 11 mps 658 mmHg 58%
    15:00 +3°C° 0 mm 11 mps 658 mmHg 59%
    16:00 +2°C° 0.2 mm 11 mps 658 mmHg 64%
    17:00 +1°C° 0.2 mm 11 mps 658 mmHg 69%
    18:00 -1°C° 0.2 mm 11 mps 659 mmHg 73%
    19:00 0°C° 0.2 mm 10 mps 659 mmHg 76%
    20:00 -2°C° 0.2 mm 10 mps 659 mmHg 79%
    21:00 -3°C° 0.2 mm 9 mps 660 mmHg 82%
    22:00 -3°C° 0 mm 9 mps 659 mmHg 82%
    23:00 -2°C° 0 mm 8 mps 659 mmHg 82%
    Show more